PBO Station Position Time Series. Reference Frame : NAM14
Format Version,1.1.0
4-character ID,FST1
Station name,Durmid_Hill
Begin Date, 2000-08-17
End Date, 2007-12-11
Release Date, 2021-02-19
Reference position, 35.2217739548 North Latitude, -111.8173969619 East Longitude, 2136.20981 meters elevation,
Date, North (mm), East (mm), Vertical (mm), North Std. Deviation (mm), East Std. Deviation (mm),              Vertical Std. Deviation (mm), Quality,
2000-08-17,0.00, 0.00, 0.00, 2.43, 2.03, 9.42, repro,
2000-08-18,-5.52, 1.55, 14.22, 2.75, 2.50, 11.41, repro,
2000-08-19,-2.02, 2.28, 16.07, 2.35, 2.10, 9.66, repro,
2000-08-20,-4.62, 1.97, 23.63, 2.63, 2.40, 10.92, repro,
2000-08-21,-3.68, 0.45, 9.19, 2.68, 2.44, 10.87, repro,
2000-08-22,-1.10, -0.77, 4.48, 2.52, 2.17, 10.25, repro,
2000-08-23,-3.40, -2.10, 16.01, 2.42, 2.14, 9.54, repro,
2000-08-24,-2.97, 1.26, 16.94, 2.89, 2.48, 11.59, repro,
2000-08-25,-2.40, -1.20, 3.81, 2.93, 2.75, 11.84, repro,
2000-08-26,-2.60, 0.84, 20.96, 2.68, 2.43, 11.11, repro,
2000-08-27,-0.12, 1.61, 28.63, 3.53, 3.00, 13.64, repro,
2000-08-28,-2.52, -0.59, 19.98, 2.84, 2.59, 11.57, repro,
2000-08-29,0.33, 1.92, 19.40, 2.63, 2.32, 10.46, repro,
2000-08-30,-4.34, 0.33, 1.86, 2.76, 2.37, 10.98, repro,
2000-08-31,-2.21, 1.02, 5.75, 2.89, 2.49, 11.15, repro,
2000-09-01,-3.97, -2.10, 24.48, 3.12, 2.70, 12.22, repro,
2000-09-02,-1.71, -2.26, 21.03, 2.42, 2.16, 9.71, repro,
2000-09-03,-6.08, 0.96, 26.47, 2.26, 2.03, 9.12, repro,
2000-09-04,-1.79, -0.32, 10.95, 2.65, 2.21, 10.32, repro,
2000-09-05,-2.11, -1.30, 16.75, 2.38, 1.98, 9.13, repro,
2000-09-06,-2.12, 1.36, 11.10, 2.53, 2.16, 9.97, repro,
2000-09-07,1.44, 0.34, 4.93, 2.97, 2.62, 11.90, repro,
2000-09-08,-3.96, -0.78, 14.12, 2.59, 2.22, 10.58, repro,
2000-09-09,0.71, -0.06, 10.02, 2.64, 2.36, 10.84, repro,
2000-09-10,-0.64, -0.56, 16.33, 2.40, 2.22, 10.03, repro,
2000-09-11,-0.00, 1.27, 19.26, 3.02, 2.52, 11.90, repro,
2000-09-12,-2.66, -0.27, 10.07, 2.57, 2.29, 10.56, repro,
2000-09-13,-3.16, 0.35, 9.09, 2.76, 2.31, 10.84, repro,
2000-09-14,-2.74, -0.56, 11.09, 2.74, 2.35, 10.58, repro,
2000-09-15,-1.38, -0.41, 14.15, 2.29, 2.02, 9.23, repro,
2000-09-16,-3.51, 0.83, 15.43, 2.36, 2.19, 9.66, repro,
2000-09-17,-2.66, 1.81, 5.24, 2.45, 2.15, 9.80, repro,
2000-09-18,-1.47, 1.62, 8.88, 2.39, 2.14, 9.79, repro,
2000-09-19,-2.82, 1.32, 8.31, 2.49, 2.18, 10.18, repro,
2000-09-20,-2.41, -0.29, 12.03, 2.32, 2.08, 9.43, repro,
2000-09-21,-3.29, 0.55, 0.16, 2.64, 2.36, 10.40, repro,
2000-09-22,-3.60, 0.63, 8.44, 2.58, 2.30, 10.18, repro,
2000-09-23,-4.04, 0.46, 11.50, 2.63, 2.39, 10.38, repro,
2000-09-24,-2.72, -0.30, 4.28, 2.49, 2.19, 10.18, repro,
2000-09-25,-1.50, 1.75, 3.92, 2.58, 2.34, 10.31, repro,
2000-09-26,-1.77, 1.70, 24.03, 2.75, 2.51, 11.67, repro,
2000-09-27,-3.47, 1.77, 15.14, 3.31, 3.16, 14.04, repro,
2000-09-28,-2.69, 1.79, 9.95, 2.29, 2.21, 9.86, repro,
2000-09-29,-3.91, 0.11, 11.91, 2.34, 2.06, 9.46, repro,
2000-09-30,-2.34, 0.60, 17.66, 2.15, 1.94, 8.66, repro,
2000-10-01,-1.43, 1.01, 10.89, 2.12, 1.86, 8.52, repro,
2000-10-02,-3.71, 0.78, 16.36, 2.15, 1.90, 8.54, repro,
2000-10-03,-4.01, 3.30, 10.25, 2.15, 1.93, 8.68, repro,
2000-10-04,-4.91, 1.18, 15.49, 2.14, 1.86, 8.36, repro,
2000-10-05,-2.58, -0.10, 15.78, 2.18, 2.00, 8.47, repro,
2000-10-06,-3.57, 2.39, 13.07, 2.05, 1.82, 8.18, repro,
2000-10-07,-2.78, 1.55, 12.71, 2.02, 1.80, 8.12, repro,
2000-10-08,-1.47, 1.04, 17.52, 2.01, 1.81, 8.04, repro,
2000-10-09,-3.24, 2.09, 11.97, 2.08, 1.88, 8.31, repro,
2000-10-10,-3.10, 2.24, 22.46, 2.21, 1.98, 8.96, repro,
2000-10-11,-2.35, 2.03, 6.25, 2.22, 1.93, 8.82, repro,
2000-10-12,-3.99, 2.78, 9.78, 2.43, 2.22, 9.54, repro,
2000-10-13,-3.11, 1.56, 15.02, 2.30, 2.15, 9.54, repro,
2000-10-14,-0.54, 1.03, 12.44, 2.54, 2.34, 10.53, repro,
2000-10-15,-3.21, 0.04, 21.42, 2.26, 2.10, 9.12, repro,
2000-10-16,-3.23, 0.29, 12.92, 2.39, 2.22, 9.73, repro,
2000-10-17,-3.21, -0.14, 18.00, 2.28, 1.94, 8.68, repro,
2000-10-18,-4.30, 1.00, 4.02, 2.54, 2.21, 9.79, repro,
2000-10-19,-3.72, 1.75, 17.50, 2.53, 2.29, 10.12, repro,
2000-10-20,-3.49, 1.30, 18.37, 2.41, 2.19, 9.75, repro,
2000-10-21,-4.64, 1.59, 20.77, 2.39, 2.09, 9.37, repro,
2000-10-22,-3.39, 2.31, 14.00, 2.38, 2.10, 9.45, repro,
2000-10-23,-2.45, 1.02, 14.70, 2.38, 2.03, 9.27, repro,
2000-10-24,-5.89, -0.19, 18.76, 3.51, 3.06, 13.73, repro,
2000-10-25,-3.39, 0.56, 18.08, 2.23, 2.01, 8.90, repro,
2000-10-26,-1.38, 0.09, 16.42, 2.35, 2.05, 9.34, repro,
2000-10-27,-2.33, 2.34, -3.56, 4.24, 3.95, 16.91, repro,
2000-10-28,-6.04, -2.32, 18.01, 2.50, 2.08, 9.49, repro,
2000-10-29,-1.81, 3.64, 15.45, 2.23, 1.98, 8.96, repro,
2000-10-30,-1.10, 4.07, 19.50, 2.37, 2.20, 9.61, repro,
2000-10-31,-0.79, 2.65, 12.26, 2.22, 2.01, 8.78, repro,
2000-11-01,1.75, 2.30, 11.91, 2.17, 1.94, 8.59, repro,
2000-11-02,1.63, 3.69, 9.00, 2.07, 1.90, 8.30, repro,
2000-11-03,0.73, 2.21, 11.73, 2.31, 2.12, 8.93, repro,
2000-11-04,1.34, 4.90, 16.25, 2.11, 1.86, 8.24, repro,
2000-11-05,1.07, 3.53, 23.58, 2.13, 1.92, 8.40, repro,
2000-11-06,1.74, 4.50, 18.64, 2.13, 1.96, 8.66, repro,
2000-11-07,1.29, 3.75, 14.29, 2.22, 1.95, 8.57, repro,
2000-11-08,1.66, 1.94, 16.30, 2.11, 1.89, 8.16, repro,
2000-11-09,1.89, 2.88, 23.80, 2.19, 1.90, 8.50, repro,
2000-11-10,1.85, 3.44, 13.83, 2.29, 1.97, 8.83, repro,
2000-11-11,0.90, 2.48, 6.59, 2.12, 1.89, 8.41, repro,
2000-11-12,3.15, 2.86, 17.56, 2.04, 1.84, 8.13, repro,
2000-11-13,3.03, 4.13, 10.21, 2.12, 1.94, 8.21, repro,
2000-11-14,2.75, 1.88, 18.03, 2.15, 1.99, 8.16, repro,
2000-11-15,1.20, 6.78, 9.03, 2.16, 1.99, 8.88, repro,
2000-11-16,2.78, 3.80, 11.77, 2.24, 1.95, 8.49, repro,
2000-11-17,3.85, 3.26, 8.89, 2.05, 1.82, 8.10, repro,
2000-11-18,2.35, 4.16, 7.68, 2.14, 1.92, 8.26, repro,
2000-11-19,2.92, 4.11, 9.25, 2.19, 1.95, 8.55, repro,
2000-11-20,3.54, 3.63, 10.01, 2.15, 1.97, 8.54, repro,
2000-11-21,2.75, 4.73, 8.66, 2.18, 1.99, 8.50, repro,
2000-11-22,2.93, 3.16, 13.28, 2.27, 1.99, 8.69, repro,
2000-11-23,5.42, 5.14, 15.49, 2.12, 1.92, 8.41, repro,
2000-11-24,3.31, 5.92, 4.17, 2.23, 2.01, 8.83, repro,
2000-11-25,3.05, 3.70, 12.24, 2.23, 2.19, 9.35, repro,
2000-11-26,1.58, 3.81, 16.54, 2.28, 2.14, 9.36, repro,
2000-11-27,3.31, 4.19, 13.65, 2.61, 2.19, 9.85, repro,
2000-11-28,3.44, 5.77, 14.95, 2.63, 2.30, 10.10, repro,
2000-11-29,3.24, 4.48, 8.40, 2.31, 2.12, 9.29, repro,
2000-11-30,3.34, 5.31, 10.11, 2.17, 2.01, 8.72, repro,
2000-12-01,2.51, 5.64, 10.37, 2.31, 2.03, 9.40, repro,
2000-12-02,2.50, 6.59, -0.18, 2.40, 2.20, 9.53, repro,
2000-12-03,4.93, 6.37, 2.56, 2.34, 2.19, 9.37, repro,
2000-12-04,3.16, 4.12, 3.02, 2.68, 2.46, 10.62, repro,
2000-12-05,4.59, 5.37, -2.42, 2.14, 1.91, 8.57, repro,
2000-12-06,3.30, 3.73, 8.53, 2.30, 2.03, 9.31, repro,
2000-12-07,2.41, 5.18, 8.37, 2.16, 1.97, 8.53, repro,
2000-12-08,3.12, 4.06, 12.95, 2.35, 2.19, 9.32, repro,
2000-12-09,2.91, 5.64, 9.93, 2.19, 2.07, 8.89, repro,
2000-12-10,4.69, 6.25, 4.70, 2.37, 2.21, 9.47, repro,
2000-12-11,2.68, 4.01, 11.72, 2.08, 1.97, 8.65, repro,
2000-12-12,2.49, 2.99, 14.23, 2.08, 1.94, 8.66, repro,
2000-12-13,2.16, 3.95, 8.49, 2.13, 1.90, 8.42, repro,
2000-12-14,3.33, 5.78, 5.45, 2.03, 1.85, 8.23, repro,
2000-12-15,3.80, 5.05, 8.90, 2.02, 1.83, 8.13, repro,
2000-12-16,3.10, 5.49, 0.77, 2.02, 1.84, 8.23, repro,
2000-12-17,3.57, 4.59, 11.99, 2.11, 1.84, 8.28, repro,
2000-12-18,2.30, 4.49, 1.31, 2.09, 1.89, 8.37, repro,
2000-12-19,2.86, 4.49, 3.97, 2.22, 1.93, 9.00, repro,
2000-12-20,3.18, 3.95, 9.90, 2.06, 1.85, 8.23, repro,
2000-12-21,4.02, 4.93, -1.49, 2.13, 1.91, 8.67, repro,
2000-12-22,3.70, 4.56, 3.75, 2.04, 1.81, 7.94, repro,
2000-12-23,3.64, 5.04, -1.46, 2.02, 1.83, 8.16, repro,
2000-12-24,1.91, 3.85, 2.14, 2.00, 1.81, 8.04, repro,
2000-12-25,3.15, 3.41, 7.48, 1.99, 1.80, 7.89, repro,
2000-12-26,2.35, 3.31, 1.83, 2.01, 1.80, 8.03, repro,
2000-12-27,2.58, 4.41, -1.98, 2.08, 1.83, 8.22, repro,
2000-12-28,2.57, 4.61, 0.59, 2.08, 1.82, 8.14, repro,
2000-12-29,3.03, 3.89, 2.36, 2.00, 1.80, 8.02, repro,
2000-12-30,1.98, 4.20, 9.89, 2.11, 1.90, 8.79, repro,
2000-12-31,3.23, 5.29, 6.75, 2.12, 1.96, 8.72, repro,
2001-01-01,2.98, 5.01, 10.63, 2.16, 1.94, 8.95, repro,
2001-01-02,2.78, 4.68, -2.75, 2.24, 1.94, 9.11, repro,
2001-01-03,2.22, 2.98, 3.36, 2.07, 1.93, 8.45, repro,
2001-01-04,3.95, 4.89, -1.14, 2.06, 1.89, 8.32, repro,
2001-01-05,3.83, 3.32, 12.74, 2.12, 1.96, 8.67, repro,
2001-01-06,2.64, 3.64, 9.64, 2.12, 1.97, 8.76, repro,
2001-01-07,3.41, 3.71, 11.26, 2.04, 1.81, 8.06, repro,
2001-01-08,3.30, 4.26, 13.10, 2.14, 1.97, 8.66, repro,
2001-01-09,3.60, 5.48, 9.70, 2.07, 1.85, 8.34, repro,
2001-01-10,3.59, 4.64, 16.66, 2.09, 1.91, 8.38, repro,
2001-01-11,3.79, 5.61, 9.30, 2.08, 1.91, 8.48, repro,
2001-01-12,3.32, 4.45, 5.66, 2.00, 1.80, 7.99, repro,
2001-01-13,3.13, 6.55, 10.67, 2.09, 1.83, 8.29, repro,
2001-01-14,2.69, 4.70, 5.19, 2.17, 1.88, 8.42, repro,
2001-01-15,3.12, 4.53, 6.42, 2.16, 1.88, 8.42, repro,
2001-01-16,4.25, 4.26, 2.13, 2.08, 1.95, 8.57, repro,
2001-01-17,3.23, 3.19, 5.75, 2.09, 1.85, 8.31, repro,
2001-01-18,3.01, 4.51, 4.33, 2.10, 1.83, 8.17, repro,
2001-01-19,3.26, 3.92, 5.91, 2.07, 1.85, 8.09, repro,
2001-01-20,3.40, 3.91, 1.62, 2.02, 1.86, 8.18, repro,
2001-01-21,1.94, 6.35, -0.28, 2.04, 1.82, 8.08, repro,
2001-01-22,2.41, 4.66, 3.94, 2.01, 1.89, 8.29, repro,
2001-01-23,1.02, 4.00, 2.34, 2.41, 2.13, 9.80, repro,
2001-01-24,3.10, 3.43, 4.06, 2.21, 1.92, 8.53, repro,
2001-01-25,4.14, 7.14, -4.98, 2.11, 1.88, 8.32, repro,
2001-01-26,3.47, 4.56, 2.84, 2.19, 1.94, 8.72, repro,
2001-01-27,2.49, 4.63, 14.23, 2.19, 1.98, 8.89, repro,
2001-01-28,1.27, 4.25, 11.45, 2.19, 1.98, 8.88, repro,
2001-01-29,2.17, 4.77, 10.89, 2.03, 1.80, 8.02, repro,
2001-01-30,3.24, 4.52, 3.58, 2.06, 1.82, 8.18, repro,
2001-01-31,3.32, 4.38, 4.36, 2.07, 1.89, 8.38, repro,
2001-02-01,2.94, 3.81, 6.16, 2.04, 1.81, 8.09, repro,
2001-02-02,2.39, 3.93, 3.99, 2.04, 1.78, 8.04, repro,
2001-02-03,3.47, 4.79, 0.44, 2.03, 1.80, 8.09, repro,
2001-02-04,2.20, 4.16, 6.61, 2.05, 1.85, 8.18, repro,
2001-02-05,2.99, 4.91, 0.34, 2.07, 1.85, 8.11, repro,
2001-02-06,0.93, 4.89, 5.36, 2.04, 1.80, 8.07, repro,
2001-02-07,2.09, 5.69, 1.18, 2.01, 1.78, 7.97, repro,
2001-02-08,2.13, 5.42, 9.82, 2.08, 1.93, 8.39, repro,
2001-02-09,2.67, 5.63, 1.87, 2.04, 1.85, 8.17, repro,
2001-02-10,4.09, 5.67, 3.60, 2.04, 1.78, 7.99, repro,
2001-02-11,3.30, 5.39, 4.15, 2.12, 1.88, 8.35, repro,
2001-02-12,3.73, 5.76, 4.90, 2.13, 1.88, 8.35, repro,
2001-02-13,3.62, 5.60, 5.68, 2.01, 1.79, 8.02, repro,
2001-02-14,2.78, 5.35, 5.09, 2.10, 1.89, 8.28, repro,
2001-02-15,2.51, 4.47, 4.72, 2.08, 1.90, 8.19, repro,
2001-02-16,3.25, 5.35, 1.20, 2.10, 1.80, 8.26, repro,
2001-02-17,3.84, 6.45, 0.07, 2.24, 2.05, 8.94, repro,
2001-02-18,3.18, 4.89, 5.73, 2.04, 1.82, 8.07, repro,
2001-02-19,2.43, 5.51, 2.46, 2.21, 1.88, 8.60, repro,
2001-02-20,0.18, 5.21, 5.54, 2.05, 1.88, 8.11, repro,
2001-02-21,2.16, 4.97, 5.68, 2.07, 1.82, 8.00, repro,
2001-02-22,2.29, 5.83, -1.13, 2.04, 1.81, 8.06, repro,
2001-02-23,2.91, 4.21, 10.66, 2.06, 1.88, 8.11, repro,
2001-02-24,3.82, 4.68, 7.56, 2.24, 1.93, 8.57, repro,
2001-02-25,2.30, 6.04, -1.46, 2.17, 1.95, 8.55, repro,
2001-02-26,4.62, 4.97, 4.75, 2.10, 1.89, 8.18, repro,
2001-02-27,3.90, 6.12, 5.89, 2.13, 1.80, 8.51, repro,
2001-02-28,3.83, 5.65, 18.20, 2.13, 1.86, 8.63, repro,
2001-03-01,4.06, 3.73, 13.60, 2.43, 2.15, 9.44, repro,
2001-03-02,3.93, 5.37, 11.31, 2.27, 2.13, 8.89, repro,
2001-03-03,3.28, 4.74, 11.76, 2.13, 1.89, 8.24, repro,
2001-03-04,2.76, 7.05, 3.98, 2.10, 1.80, 8.26, repro,
2001-03-05,2.73, 6.78, -2.25, 2.21, 1.93, 8.58, repro,
2001-03-06,3.15, 5.76, 1.65, 2.02, 1.82, 8.01, repro,
2001-03-07,3.40, 6.61, 12.40, 2.00, 1.76, 7.87, repro,
2001-03-08,4.22, 6.83, 25.19, 2.07, 1.81, 8.12, repro,
2001-03-09,2.79, 6.31, 0.88, 2.16, 1.92, 8.74, repro,
2001-03-10,6.54, 6.08, 15.48, 2.23, 1.95, 8.79, repro,
2001-03-11,3.45, 6.60, 14.81, 2.16, 1.88, 8.56, repro,
2001-03-12,3.39, 4.75, 10.79, 2.17, 1.89, 8.51, repro,
2001-03-13,4.17, 5.36, 12.46, 2.16, 1.84, 8.49, repro,
2001-03-14,4.07, 5.51, 11.02, 2.05, 1.83, 8.08, repro,
2001-03-15,4.06, 5.83, 11.12, 2.05, 1.79, 8.08, repro,
2001-03-16,2.97, 5.06, 13.91, 2.08, 1.87, 8.35, repro,
2001-03-17,1.69, 5.52, 7.11, 2.10, 1.89, 8.23, repro,
2001-03-18,3.83, 5.48, 0.36, 2.05, 1.81, 8.09, repro,
2001-03-19,4.33, 7.21, 5.74, 2.04, 1.81, 8.08, repro,
2001-03-20,3.80, 6.78, 8.10, 2.12, 1.84, 8.24, repro,
2001-03-21,3.06, 7.44, 7.61, 2.17, 1.91, 8.52, repro,
2001-03-22,2.39, 6.02, 4.87, 2.15, 1.92, 8.56, repro,
2001-03-23,3.86, 6.85, 13.18, 2.04, 1.79, 8.01, repro,
2001-03-24,4.18, 6.34, 3.46, 2.04, 1.79, 7.98, repro,
2001-03-25,4.01, 5.68, 5.38, 2.09, 1.85, 8.23, repro,
2001-03-26,4.55, 5.76, 5.11, 2.11, 1.82, 8.29, repro,
2001-03-27,4.49, 6.13, 11.85, 2.23, 1.89, 8.65, repro,
2001-03-28,4.38, 4.74, 13.25, 2.17, 1.84, 8.35, repro,
2001-03-29,0.99, 5.32, 10.12, 2.40, 2.15, 9.60, repro,
2001-03-30,3.07, 5.50, 11.00, 2.08, 1.85, 8.21, repro,
2001-03-31,2.67, 5.15, 9.70, 2.10, 1.90, 8.53, repro,
2001-04-01,3.35, 5.24, 13.01, 2.06, 1.81, 8.11, repro,
2001-04-02,1.64, 3.80, 17.92, 2.04, 1.79, 7.99, repro,
2001-04-03,3.11, 4.89, 15.25, 2.15, 1.88, 8.34, repro,
2001-04-04,3.05, 4.37, 18.21, 2.10, 1.85, 8.34, repro,
2001-04-05,5.21, 6.13, 11.07, 2.07, 1.88, 8.27, repro,
2001-04-06,3.25, 3.47, 18.66, 2.05, 1.82, 8.04, repro,
2001-04-07,1.58, 4.43, 17.48, 2.06, 1.83, 7.94, repro,
2001-04-08,3.31, 5.73, 13.80, 2.11, 1.87, 8.22, repro,
2001-04-09,2.75, 4.88, 16.79, 2.11, 1.86, 8.22, repro,
2001-04-10,3.33, 6.58, 12.29, 2.21, 1.95, 8.81, repro,
2001-04-11,2.19, 4.00, 15.61, 2.31, 2.05, 8.89, repro,
2001-04-12,3.16, 6.02, 14.85, 2.07, 1.84, 8.24, repro,
2001-04-13,4.01, 6.51, 6.90, 2.05, 1.80, 8.01, repro,
2001-04-14,4.08, 4.48, 17.82, 2.20, 1.98, 8.61, repro,
2001-04-15,4.42, 5.37, 17.73, 2.13, 1.92, 8.17, repro,
2001-04-16,3.55, 6.69, 12.38, 2.25, 2.02, 8.96, repro,
2001-04-17,4.16, 4.64, 0.11, 2.29, 2.05, 9.17, repro,
2001-04-18,4.07, 5.60, 6.44, 2.19, 1.91, 8.57, repro,
2001-04-19,5.09, 6.04, 21.68, 2.10, 1.88, 8.48, repro,
2001-04-20,3.95, 4.73, 18.45, 2.03, 1.79, 8.02, repro,
2001-04-21,4.42, 6.06, 17.61, 2.07, 1.82, 8.16, repro,
2001-04-22,3.33, 4.27, 18.98, 2.09, 1.87, 8.17, repro,
2001-04-23,2.74, 5.23, 11.49, 2.11, 1.87, 8.35, repro,
2001-04-24,3.46, 5.19, 14.03, 2.28, 1.94, 9.10, repro,
2001-04-25,4.20, 3.11, 27.55, 2.17, 1.93, 8.53, repro,
2001-04-26,2.24, 4.89, 19.18, 2.03, 1.77, 7.98, repro,
2001-04-27,3.75, 5.06, 20.34, 2.09, 1.84, 8.24, repro,
2001-04-28,3.02, 4.27, 21.92, 2.05, 1.83, 8.04, repro,
2001-04-29,3.23, 5.29, 25.23, 2.20, 1.96, 8.70, repro,
2001-04-30,5.24, 3.99, 14.38, 2.17, 1.97, 8.64, repro,
2001-05-01,4.81, 6.06, 18.04, 2.18, 1.88, 8.42, repro,
2001-05-02,3.20, 5.28, 24.21, 2.03, 1.78, 7.99, repro,
2001-05-03,4.58, 4.18, 13.29, 2.07, 1.82, 8.09, repro,
2001-05-04,2.30, 4.94, 19.13, 2.02, 1.77, 8.01, repro,
2001-05-05,2.49, 5.30, 15.64, 2.01, 1.78, 8.02, repro,
2001-05-06,2.43, 5.04, 15.35, 2.05, 1.83, 8.22, repro,
2001-05-07,3.66, 5.30, 8.94, 2.48, 2.16, 9.55, repro,
2001-05-08,4.13, 5.19, 15.29, 2.15, 1.93, 8.58, repro,
2001-05-09,4.25, 5.55, 15.92, 2.00, 1.79, 8.05, repro,
2001-05-10,2.67, 5.35, 17.34, 2.05, 1.81, 8.06, repro,
2001-05-11,2.49, 5.19, 16.70, 2.05, 1.77, 8.14, repro,
2001-05-12,1.98, 6.24, 16.53, 2.16, 1.91, 8.58, repro,
2001-05-13,2.12, 6.02, 12.00, 2.21, 1.95, 8.69, repro,
2001-05-14,4.23, 3.61, 5.79, 2.18, 1.96, 8.66, repro,
2001-05-15,3.08, 6.55, 22.66, 2.10, 1.86, 8.41, repro,
2001-05-16,2.00, 6.29, 19.94, 2.03, 1.81, 8.18, repro,
2001-05-17,2.49, 5.72, 24.26, 2.14, 1.91, 8.37, repro,
2001-05-18,3.41, 4.95, 9.42, 2.05, 1.80, 8.18, repro,
2001-05-19,4.04, 5.98, 11.28, 2.00, 1.74, 8.04, repro,
2001-05-20,3.76, 6.87, 13.25, 2.06, 1.79, 8.19, repro,
2001-05-21,2.59, 5.17, 24.69, 2.11, 1.90, 8.82, repro,
2001-05-22,2.09, 5.70, 20.47, 2.16, 1.91, 8.78, repro,
2001-05-23,1.46, 4.09, 23.39, 2.02, 1.75, 8.02, repro,
2001-05-24,2.80, 4.72, 17.48, 2.05, 1.82, 8.39, repro,
2001-05-25,2.89, 5.86, 14.11, 2.01, 1.77, 8.06, repro,
2001-05-26,2.41, 7.31, 22.57, 2.02, 1.77, 8.08, repro,
2001-05-27,1.66, 4.79, 28.14, 2.03, 1.78, 8.11, repro,
2001-05-28,2.82, 5.56, 27.90, 2.17, 1.93, 8.72, repro,
2001-05-29,3.40, 6.66, 9.36, 2.18, 1.88, 8.81, repro,
2001-05-30,3.65, 7.07, 21.90, 2.19, 1.89, 8.81, repro,
2001-05-31,2.43, 5.89, 26.83, 2.05, 1.79, 8.16, repro,
2001-06-01,2.00, 6.75, 22.84, 2.07, 1.81, 8.27, repro,
2001-06-02,2.13, 6.92, 22.50, 2.46, 2.17, 9.67, repro,
2001-06-03,1.99, 6.64, 19.93, 2.05, 1.80, 8.28, repro,
2001-06-04,2.69, 6.24, 19.81, 2.08, 1.86, 8.35, repro,
2001-06-05,1.09, 5.86, 28.19, 2.08, 1.81, 8.26, repro,
2001-06-06,1.26, 5.73, 21.62, 2.17, 1.87, 8.64, repro,
2001-06-07,1.78, 6.14, 25.98, 2.15, 1.92, 8.62, repro,
2001-06-08,2.47, 6.70, 17.84, 2.67, 2.30, 10.60, repro,
2001-06-09,1.59, 7.14, 11.51, 3.02, 2.79, 12.04, repro,
2001-06-10,0.59, 7.59, 18.51, 2.20, 1.91, 8.84, repro,
2001-06-11,2.37, 8.20, 20.77, 2.07, 1.81, 8.35, repro,
2001-06-12,2.21, 8.12, 32.28, 2.13, 1.89, 8.63, repro,
2001-06-13,0.87, 5.30, 27.70, 2.10, 1.85, 8.29, repro,
2001-06-14,1.21, 7.92, 19.71, 2.40, 2.03, 9.16, repro,
2001-06-15,2.77, 7.67, 11.19, 2.08, 1.81, 8.30, repro,
2001-06-16,1.62, 7.67, 15.11, 2.20, 1.91, 8.77, repro,
2001-06-17,1.74, 9.92, 12.61, 2.13, 1.89, 8.61, repro,
2001-06-18,1.67, 9.40, 16.95, 2.15, 1.88, 8.53, repro,
2001-06-19,2.85, 9.39, 15.38, 2.12, 1.85, 8.35, repro,
2001-06-20,2.03, 8.64, 12.71, 2.13, 1.89, 8.61, repro,
2001-06-21,2.48, 9.71, 15.41, 2.11, 1.87, 8.59, repro,
2001-06-22,1.00, 8.23, 9.69, 2.26, 2.04, 9.36, repro,
2001-06-23,2.18, 8.42, 9.74, 2.15, 1.92, 8.56, repro,
2001-06-24,0.51, 9.93, 21.75, 2.07, 1.84, 8.33, repro,
2001-06-25,1.68, 9.77, 19.16, 2.09, 1.80, 8.21, repro,
2001-06-26,0.73, 9.17, 22.14, 2.07, 1.81, 8.33, repro,
2001-06-27,3.34, 8.61, 8.12, 2.19, 1.96, 8.93, repro,
2001-06-28,1.82, 9.08, 14.02, 2.01, 1.79, 8.05, repro,
2001-06-29,3.28, 10.42, 12.76, 2.05, 1.83, 8.32, repro,
2001-06-30,2.56, 8.59, 16.58, 2.02, 1.74, 7.98, repro,
2001-07-01,4.24, 9.90, 13.46, 2.03, 1.75, 7.98, repro,
2001-07-02,4.12, 11.74, 7.92, 2.03, 1.77, 8.06, repro,
2001-07-03,4.05, 13.21, 10.92, 2.41, 2.05, 9.40, repro,
2001-07-04,3.92, 12.76, 3.95, 2.02, 1.82, 8.23, repro,
2001-07-05,4.69, 7.65, 23.69, 2.15, 1.89, 8.64, repro,
2001-07-06,2.52, 8.12, 21.24, 2.09, 1.86, 8.42, repro,
2001-07-07,3.47, 10.99, 14.96, 2.10, 1.81, 8.21, repro,
2001-07-08,1.62, 10.40, 17.09, 2.06, 1.82, 8.24, repro,
2001-07-09,4.23, 10.01, 10.86, 1.99, 1.76, 7.86, repro,
2001-07-10,1.81, 11.86, 10.00, 2.20, 1.98, 8.81, repro,
2001-07-11,4.07, 11.25, 7.43, 2.09, 1.82, 8.38, repro,
2001-07-12,2.83, 8.73, 11.14, 2.09, 1.78, 8.25, repro,
2001-07-13,2.35, 8.69, 9.91, 2.17, 1.87, 8.53, repro,
2001-07-14,0.41, 8.85, 23.33, 2.12, 1.97, 8.93, repro,
2001-07-15,0.08, 9.84, 23.59, 2.03, 1.77, 7.98, repro,
2001-07-16,1.99, 8.04, 17.69, 2.05, 1.80, 8.15, repro,
2001-07-17,0.41, 8.96, 20.00, 1.99, 1.74, 7.87, repro,
2001-07-18,3.74, 10.02, 5.50, 2.08, 1.83, 8.27, repro,
2001-07-19,1.70, 9.69, 9.77, 2.00, 1.74, 7.85, repro,
2001-07-20,0.42, 8.02, 9.93, 2.18, 1.96, 8.70, repro,
2001-07-21,0.93, 11.29, 5.82, 2.01, 1.76, 7.99, repro,
2001-07-22,1.60, 9.95, 10.81, 2.01, 1.75, 7.92, repro,
2001-07-23,2.33, 11.09, 17.59, 2.09, 1.80, 8.19, repro,
2001-07-24,3.04, 10.53, 17.11, 2.09, 1.82, 8.34, repro,
2001-07-25,0.79, 10.33, 13.25, 2.06, 1.82, 8.25, repro,
2001-07-26,0.05, 9.59, 12.06, 2.14, 1.83, 8.44, repro,
2001-07-27,2.55, 9.36, 16.02, 2.08, 1.91, 8.32, repro,
2001-07-28,2.06, 8.50, 6.37, 2.10, 1.81, 8.20, repro,
2001-07-29,2.26, 10.24, 13.43, 2.14, 1.86, 8.30, repro,
2001-07-30,2.94, 11.03, 8.42, 2.26, 1.92, 8.68, repro,
2001-07-31,2.19, 8.98, 8.62, 2.13, 1.89, 8.50, repro,
2001-08-01,0.73, 8.84, 17.31, 2.09, 1.81, 8.18, repro,
2001-08-02,1.50, 10.75, 10.32, 2.09, 1.84, 8.22, repro,
2001-08-03,1.67, 11.14, 16.59, 2.25, 1.93, 8.73, repro,
2001-08-04,4.82, 9.53, 6.51, 2.23, 1.88, 8.62, repro,
2001-08-05,4.97, 11.34, 6.00, 2.17, 1.85, 8.48, repro,
2001-08-06,3.32, 7.67, 22.62, 2.17, 1.90, 8.31, repro,
2001-08-07,1.82, 9.67, 18.14, 2.17, 1.86, 8.42, repro,
2001-08-08,3.37, 12.17, 11.46, 2.22, 1.94, 8.61, repro,
2001-08-09,2.29, 12.22, 16.63, 2.20, 1.88, 8.44, repro,
2001-08-10,2.66, 11.97, 3.62, 2.18, 1.85, 8.41, repro,
2001-08-11,3.89, 11.29, 17.59, 2.18, 1.87, 8.66, repro,
2001-08-12,1.38, 10.39, 10.02, 2.12, 1.78, 8.16, repro,
2001-08-13,1.82, 11.87, 8.05, 2.15, 1.82, 8.48, repro,
2001-08-14,2.53, 9.61, 16.82, 2.26, 1.95, 8.82, repro,
2001-08-15,4.67, 12.33, 1.35, 2.16, 1.86, 8.69, repro,
2001-08-16,6.12, 10.50, 6.55, 2.26, 1.89, 8.98, repro,
2001-08-17,2.31, 12.70, 22.80, 2.52, 2.15, 9.93, repro,
2001-08-18,2.18, 11.91, 7.64, 2.16, 1.86, 8.33, repro,
2001-08-19,1.59, 12.49, 16.04, 2.17, 1.86, 8.50, repro,
2001-08-20,2.73, 11.22, 25.91, 2.31, 1.89, 8.87, repro,
2001-08-21,3.44, 11.52, 14.25, 2.30, 1.98, 8.94, repro,
2001-08-22,1.74, 11.25, 23.12, 2.15, 1.84, 8.58, repro,
2001-08-23,3.73, 9.92, 11.38, 2.12, 1.78, 8.31, repro,
2001-08-24,3.48, 11.62, 15.56, 2.17, 1.82, 8.30, repro,
2001-08-25,3.01, 9.62, 16.47, 2.13, 1.80, 8.38, repro,
2001-08-26,4.14, 12.22, 13.76, 2.39, 2.03, 9.54, repro,
2001-08-27,3.91, 10.67, 8.37, 2.23, 1.86, 8.87, repro,
2001-08-28,3.55, 10.85, 24.54, 2.34, 1.98, 9.15, repro,
2001-08-29,4.72, 8.26, 12.78, 2.42, 1.95, 9.67, repro,
2001-08-30,4.04, 11.11, 11.91, 2.26, 1.86, 8.65, repro,
2001-08-31,6.03, 10.94, 11.03, 2.52, 2.02, 9.68, repro,
2001-09-01,3.82, 13.18, 19.29, 2.15, 1.83, 8.40, repro,
2001-09-02,5.06, 10.93, 17.77, 2.24, 1.94, 8.57, repro,
2001-09-03,4.70, 11.96, 18.88, 2.23, 1.86, 8.81, repro,
2001-09-04,5.76, 10.51, 27.04, 2.33, 2.00, 9.21, repro,
2001-09-05,7.35, 13.12, 8.11, 2.44, 2.15, 9.87, repro,
2001-09-06,4.61, 8.54, 13.69, 2.16, 1.81, 8.51, repro,
2001-09-07,5.77, 10.30, 8.08, 2.05, 1.78, 7.99, repro,
2001-09-08,5.89, 10.92, 16.01, 2.11, 1.83, 8.18, repro,
2001-09-09,7.48, 11.72, 11.67, 2.12, 1.83, 8.35, repro,
2001-09-10,6.00, 12.34, 10.58, 2.05, 1.77, 8.29, repro,
2001-09-11,9.18, 10.91, 11.89, 2.22, 1.97, 8.73, repro,
2001-09-12,6.97, 10.19, 20.05, 2.21, 2.05, 9.05, repro,
2001-09-13,6.97, 10.65, 26.00, 2.37, 2.06, 9.23, repro,
2001-09-14,7.98, 11.22, 20.68, 2.19, 1.95, 8.89, repro,
2001-09-15,7.08, 9.68, 13.79, 2.08, 1.82, 8.34, repro,
2001-09-16,10.54, 10.18, 13.04, 2.13, 1.85, 8.35, repro,
2001-09-17,9.35, 9.49, 11.69, 2.05, 1.76, 7.94, repro,
2001-09-18,11.08, 9.82, 11.66, 2.16, 1.89, 8.42, repro,
2001-09-19,9.28, 9.26, 15.24, 2.04, 1.77, 8.07, repro,
2001-09-20,10.83, 9.83, 23.40, 2.18, 1.89, 8.82, repro,
2001-09-21,10.38, 10.08, 13.91, 2.16, 1.88, 8.63, repro,
2001-09-22,11.10, 9.97, 17.18, 2.08, 1.76, 8.25, repro,
2001-09-23,10.11, 9.28, 12.97, 2.13, 1.81, 8.27, repro,
2001-09-24,10.07, 9.40, 12.67, 2.23, 1.94, 9.01, repro,
2001-09-25,14.96, -29.17, -37.52, 24.47, 59.43, 70.86, repro,
2001-09-26,10.50, 7.77, 14.00, 3.16, 2.75, 11.90, repro,
2001-09-27,12.52, 9.37, 27.95, 3.23, 2.82, 11.55, repro,
2001-09-28,10.53, 10.80, 21.83, 2.23, 1.89, 8.61, repro,
2001-09-29,11.03, 9.83, 15.94, 2.50, 2.28, 9.50, repro,
2001-09-30,11.93, 7.13, 4.67, 4.18, 3.65, 15.00, repro,
2001-10-01,12.93, 11.34, 11.05, 4.54, 3.80, 15.17, repro,
2001-10-02,11.56, 10.60, 11.79, 3.20, 2.67, 12.34, repro,
2001-10-03,13.31, 6.65, 14.73, 2.88, 2.42, 10.51, repro,
2001-10-04,10.41, 8.72, 20.51, 2.84, 2.24, 10.89, repro,
2001-10-05,10.99, 7.38, 24.10, 3.18, 2.70, 11.05, repro,
2001-10-06,15.37, 10.58, 18.70, 2.11, 1.82, 8.25, repro,
2001-10-07,16.76, 8.14, 16.16, 2.37, 2.09, 9.25, repro,
2001-10-08,11.55, 8.10, 18.36, 2.33, 1.97, 8.96, repro,
2001-10-09,13.09, 9.22, 22.72, 2.47, 2.07, 9.83, repro,
2001-10-10,12.63, 7.52, 7.85, 2.24, 1.89, 8.60, repro,
2001-10-11,14.47, 8.65, 14.43, 2.15, 1.83, 8.50, repro,
2001-10-12,13.93, 8.25, 14.04, 2.27, 1.95, 9.01, repro,
2001-10-13,14.78, 7.22, 25.16, 2.23, 1.93, 8.75, repro,
2001-10-14,14.56, 9.17, 22.00, 2.32, 1.98, 8.96, repro,
2001-10-15,-12.52, 34.59, 89.20, 42.31, 71.21, 138.79, repro,
2001-10-16,11.74, 10.13, 2.50, 6.27, 5.56, 25.88, repro,